Tracking 35274 objects as of 11-Sep-2026
HD Live streaming from Space Station
objects crossing your sky now

COSMOS 534


10-day predictions
COSMOS 534 is classified as:


NORAD ID: 6269
Int'l Code: 1972-087G
Launch date: November 1, 1972
Source: Commonwealth of Independent States (former USSR) (CIS)
Launch site: PLESETSK MISSILE AND SPACE COMPLEX (PKMTR)
Your satellite tracking list
Your tracking list is empty




NASA's NSSDC Master Catalog

Two Line Element Set (TLE):
1  6269U 72087G   26253.51952534  .00000014  00000-0  16683-3 0  9991
2  6269  74.0329 282.5300 0076528   1.6847 109.0675 12.63679191484418
Source of the keplerian elements: AFSPC